Location: Cherry Grove
(44.1968°N, 92.8624°W)
Time: 10:55:10
(UTC-06:00)

Tiangong 2 - Visible Passes

Search period start: 13 December 2017 00:00
Search period end: 23 December 2017 00:00
Orbit: 386 x 390 km, 42.8° (Epoch: 13 December)

Date Brightness Start Highest point End Pass type
(mag) Time Alt. Az. Time Alt. Az. Time Alt. Az.
21 Dec 3.4 18:32:35 10° SSW 18:34:01 16° S 18:34:01 16° S visible
22 Dec 3.6 17:35:35 10° SSE 17:36:35 11° SSE 17:37:34 10° SE visible
22 Dec 3.9 19:09:51 10° SW 19:10:42 16° SW 19:10:42 16° SW visible
